[[{"header":{"parameterUnit":"m.s-1","parameterCategory":1,"la1":30.2991,"la2":30.254,"lo1":-89.0895,"lo2":-89.0444,"dy":0.0017,"dx":0.0017,"nx":28,"ny":28,"refTime":"2025-03-10T03:00:00:Z","depth":0,"parameterNumber":2,"parameterNumberName":"U-component_of_WINDS"},"data":[0,0,0,0,0,0,0,0,0,0,0,0,0,0,0,0,0,0,0,0,0,0,0,0,0,0,0,0,0,0,0,0,0,0,0,0,0,0,0,0,0,0,0,0,0,0,0,0,0,0,0,0,0,0,0,0,0,0,0.9997,0.9998,0,1.004,1.004,1.0041,1.0051,1.0051,1.005,1.005,1.0095,1.0096,1.0098,0,0,0,0,0,0,0,0,0,0,0,0,0,0.9928,0.9929,0.9997,0.9998,0.9998,1.004,1.004,1.0041,1.0051,1.0051,1.005,1.005,1.0094,1.0096,1.0098,0,0,0,0,0,0,0,0,0,0,0,0,0,0.9963,0.9929,0.9997,1.0008,1.001,1.004,1.004,1.0041,1.0051,1.0051,1.005,1.005,1.0094,1.0096,1.0098,1.0121,0,0,1.0105,1.0106,0,0,0,0,0,0,0,0,0.9961,0.9965,1.0006,1.0007,1.0009,1.0039,1.0032,1.0068,1.0051,1.0035,1.005,1.0049,1.0077,1.0081,1.009,1.0123,1.0125,1.0105,1.0106,1.0107,1.0108,0,0,0,0,0,0,0,0.9958,0.9964,1.0014,1.0007,1.0008,1.0012,1.0017,1.0039,1.0058,1.0037,1.0037,1.0042,1.0078,1.0087,1.0091,1.0125,1.0105,1.0107,1.0108,1.0109,1.0182,1.0183,0,0,0,0,0,0,0.9954,0.9961,1.0013,1.0015,0.9983,1.0014,1.0019,1.003,1.0058,1.0062,1.0043,1.0043,1.0084,1.0088,1.0092,1.0122,1.0107,1.0109,1.0111,1.0181,1.0182,1.0183,0,0,0,0,0,0,0.9952,0.9958,1.0011,0.9989,0.9996,1.0015,1.0028,1.0031,1.0041,1.0062,1.0066,1.0049,1.0084,1.0089,1.0114,1.0124,1.011,1.0112,1.0181,1.0182,1.0182,1.018,0,0,0,0,0,0,0.995,0.9957,0.9965,0.9989,0.9997,1.0031,1.0029,1.0032,1.0044,1.0045,1.0069,1.0073,1.0084,1.0111,1.0116,1.0126,1.0114,1.018,1.0181,1.0182,1.018,1.0181,1.0182,0,0,0,0,0,0.9947,0.9963,0.9965,0.9972,1.0007,1.0031,1.0036,1.0048,1.0045,1.0054,1.0068,1.0072,1.0122,1.0113,1.0119,1.013,1.0179,1.0181,1.0182,1.0179,1.0181,1.0182,0,0,0,0,0,0,0.9939,0.9966,0.9969,0.9992,1.001,1.0033,1.0044,1.0049,1.0068,1.0067,1.0082,1.0088,1.0112,1.0124,1.0114,1.0155,1.0151,1.0153,1.0146,1.0148,1.0149,1.0146,1.0116,0,0,0,0,0,0.994,0.9957,0.998,0.9998,1.0007,1.0024,1.0035,1.0043,1.0062,1.0069,1.0085,1.0104,1.0124,1.0137,1.0156,1.0182,1.0188,1.0193,1.0194,1.0195,1.0197,1.0214,1.0217,1.0187,1.0187,1.0187,0,0,0.9942,0.9959,0.9968,0.9997,1.0011,1.003,1.003,1.0049,1.0063,1.0072,1.0097,1.0109,1.0131,1.0157,1.017,1.0168,1.0207,1.0197,1.0197,1.0199,1.0216,1.0219,1.0221,1.0188,1.0188,1.0188,0,0,0.9955,0.9969,0.9987,1.0001,1.0023,1.0035,1.004,1.0063,1.0072,1.0097,1.0105,1.0123,1.0156,1.0172,1.0185,1.0207,1.0212,1.0213,1.022,1.0237,1.0239,1.0241,1.0251,1.0254,1.0215,1.0215,1.0215,0,0.9955,0.9982,0.9995,1.0014,1.0028,1.0037,1.0056,1.007,1.0097,1.0107,1.0105,1.0149,1.0164,1.0195,1.0201,1.021,1.0217,1.021,1.0238,1.024,1.0242,1.0252,1.0255,1.0216,1.0216,1.0216,1.0216,0,0.9982,1.0001,1.0013,1.004,1.0054,1.0073,1.009,1.0104,1.0111,1.0124,1.0151,1.017,1.0194,1.0202,1.0209,1.0235,1.0234,1.0234,1.023,1.0245,1.0254,1.0258,1.0216,1.0216,1.0216,1.0216,0,0,0.9989,1.0025,1.0029,1.0042,1.0068,1.0084,1.0105,1.0129,1.0141,1.016,1.0179,1.0209,1.021,1.0225,1.0234,1.0248,1.0267,1.0248,1.0248,1.0252,1.03,1.0299,1.0303,1.0271,1.0272,1.0272,1.0298,0,1.0007,1.0043,1.0056,1.0087,1.0106,1.0117,1.0135,1.0154,1.0167,1.0186,1.0201,1.0222,1.0222,1.0231,1.0246,1.0262,1.0277,1.026,1.029,1.0291,1.0285,1.0308,1.0307,1.0331,1.0302,1.0302,1.0303,0,1.0031,1.0051,1.0084,1.011,1.0118,1.0134,1.0159,1.0177,1.02,1.0209,1.0226,1.0235,1.0259,1.0254,1.0288,1.0276,1.0289,1.03,1.0301,1.0304,1.0298,1.0313,1.0338,1.0342,1.0308,1.0308,1.0307,0,1.0035,1.007,1.0095,1.0106,1.0137,1.0148,1.0162,1.0184,1.0199,1.0221,1.0231,1.0255,1.0269,1.0288,1.0305,1.0299,1.0338,1.0334,1.0348,1.0347,1.0355,1.0355,1.0384,1.0363,1.0362,1.0362,1.0362,0,1.0053,1.0073,1.0097,1.0112,1.0136,1.0152,1.0175,1.0189,1.021,1.0229,1.024,1.0258,1.0278,1.03,1.0313,1.034,1.0346,1.0355,1.0358,1.0354,1.0354,1.0364,1.0363,1.0363,1.0363,1.0363,1.0363,0,1.0061,1.0078,1.0106,1.0133,1.0141,1.0157,1.0181,1.0198,1.0212,1.0237,1.0244,1.0267,1.0293,1.0311,1.0344,1.0353,1.0384,1.0386,1.0376,1.0377,1.0391,1.039,1.0428,1.0435,1.0408,1.0408,1.0408,0,1.0071,1.0087,1.0117,1.013,1.0144,1.0166,1.0181,1.0199,1.0215,1.0243,1.0257,1.0284,1.0306,1.0347,1.0368,1.0394,1.0398,1.041,1.0402,1.0399,1.04,1.0399,1.0402,1.0411,1.0411,1.0411,1.0412,0,1.0088,1.0097,1.0118,1.0144,1.0162,1.0183,1.0203,1.0214,1.0236,1.0254,1.0281,1.0298,1.0333,1.036,1.0389,1.0405,1.0413,1.0414,1.0419,1.0415,1.0409,1.0414,1.038,1.0413,1.0413,1.0413,1.0413,1.0413,1.0099,1.0114,1.0138,1.0163,1.018,1.0201,1.0218,1.0235,1.0258,1.0287,1.0297,1.0325,1.0351,1.039,1.0406,1.043,1.0429,1.0436,1.0438,1.0439,1.044,1.0405,1.0435,1.0435,1.0435,1.0435,1.0435,0,1.0118,1.0134,1.0157,1.0186,1.0206,1.0212,1.0236,1.0253,1.0277,1.03,1.0323,1.0355,1.0382,1.0406,1.0435,1.0449,1.0454,1.0456,1.0456,1.046,1.0438,1.0432,1.0452,1.0452,1.0452,1.0452,1.0452,1.0452,1.013,1.0157,1.0169,1.0206,1.0222,1.025,1.0264,1.0284,1.0302,1.0338,1.0361,1.0376,1.04,1.0431,1.0457,1.0463,1.0474,1.0476,1.0483,1.0463,1.0461,1.0459,1.0453,1.0478,1.0478,1.0503,1.0503,1.0504]},{"header":{"parameterUnit":"m.s-1","parameterCategory":1,"la1":30.2991,"la2":30.254,"lo1":-89.0895,"lo2":-89.0444,"dy":0.0017,"dx":0.0017,"nx":28,"ny":28,"refTime":"2025-03-10T03:00:00:Z","depth":0,"parameterNumber":3,"parameterNumberName":"V-component_of_WINDS"},"data":[0,0,0,0,0,0,0,0,0,0,0,0,0,0,0,0,0,0,0,0,0,0,0,0,0,0,0,0,0,0,0,0,0,0,0,0,0,0,0,0,0,0,0,0,0,0,0,0,0,0,0,0,0,0,0,0,0,0,-4.1648,-4.1649,0,-4.1663,-4.1663,-4.1663,-4.1717,-4.1718,-4.1719,-4.1721,-4.1731,-4.173,-4.173,0,0,0,0,0,0,0,0,0,0,0,0,0,-4.1667,-4.1667,-4.1648,-4.1649,-4.1649,-4.1663,-4.1663,-4.1663,-4.1717,-4.1718,-4.172,-4.1721,-4.1732,-4.173,-4.1729,0,0,0,0,0,0,0,0,0,0,0,0,0,-4.1668,-4.1667,-4.1648,-4.1677,-4.168,-4.1663,-4.1663,-4.1663,-4.1716,-4.1718,-4.172,-4.1722,-4.1732,-4.1731,-4.1729,-4.1684,0,0,-4.1725,-4.1725,0,0,0,0,0,0,0,0,-4.1668,-4.1667,-4.1673,-4.1675,-4.1678,-4.169,-4.1673,-4.167,-4.1716,-4.1702,-4.1721,-4.1723,-4.1716,-4.1716,-4.1714,-4.1684,-4.1685,-4.1725,-4.1724,-4.1724,-4.1723,0,0,0,0,0,0,0,-4.1668,-4.1667,-4.1654,-4.1673,-4.1676,-4.169,-4.1692,-4.1673,-4.1698,-4.1704,-4.1708,-4.1709,-4.1718,-4.1715,-4.1715,-4.1685,-4.1725,-4.1724,-4.1723,-4.1723,-4.1622,-4.162,0,0,0,0,0,0,-4.1664,-4.1666,-4.1653,-4.1654,-4.1678,-4.1688,-4.169,-4.1684,-4.1699,-4.1703,-4.1707,-4.1711,-4.1717,-4.1716,-4.1715,-4.1665,-4.1724,-4.1723,-4.1722,-4.1624,-4.1621,-4.1619,0,0,0,0,0,0,-4.1664,-4.1662,-4.1653,-4.1662,-4.1661,-4.1685,-4.1678,-4.1684,-4.1682,-4.1701,-4.1706,-4.17,-4.1718,-4.1717,-4.1692,-4.1666,-4.1722,-4.1721,-4.1626,-4.1623,-4.162,-4.1562,0,0,0,0,0,0,-4.1664,-4.1662,-4.1644,-4.1661,-4.1661,-4.1629,-4.1677,-4.1683,-4.168,-4.1685,-4.1696,-4.17,-4.172,-4.1694,-4.1691,-4.1665,-4.172,-4.1628,-4.1625,-4.1621,-4.1566,-4.1558,-4.155,0,0,0,0,0,-4.1665,-4.1626,-4.1643,-4.1641,-4.164,-4.1627,-4.1627,-4.1652,-4.1677,-4.166,-4.1674,-4.1699,-4.167,-4.1691,-4.1688,-4.1661,-4.163,-4.1626,-4.1621,-4.157,-4.1559,-4.155,0,0,0,0,0,0,-4.1603,-4.1628,-4.1648,-4.1613,-4.1618,-4.1637,-4.1615,-4.1639,-4.1636,-4.1641,-4.1671,-4.1673,-4.1644,-4.1651,-4.1674,-4.162,-4.1654,-4.1649,-4.1616,-4.1606,-4.1598,-4.1597,-4.1719,0,0,0,0,0,-4.1586,-4.1575,-4.1597,-4.1564,-4.1566,-4.1591,-4.1586,-4.1605,-4.1611,-4.1613,-4.1624,-4.1628,-4.162,-4.1614,-4.1607,-4.1569,-4.1573,-4.1549,-4.1541,-4.1534,-4.1529,-4.1512,-4.1502,-4.1605,-4.1605,-4.1605,0,0,-4.1549,-4.1562,-4.1552,-4.1552,-4.1558,-4.1546,-4.1592,-4.1576,-4.1567,-4.161,-4.1588,-4.1597,-4.1603,-4.1572,-4.1559,-4.1576,-4.1502,-4.1529,-4.1523,-4.1522,-4.1506,-4.1497,-4.1488,-4.1602,-4.1603,-4.1603,0,0,-4.1476,-4.1484,-4.1459,-4.1465,-4.1475,-4.1493,-4.1487,-4.1503,-4.1511,-4.149,-4.1523,-4.1513,-4.1498,-4.1502,-4.1502,-4.1437,-4.1461,-4.1434,-4.139,-4.1373,-4.1365,-4.1358,-4.1336,-4.1327,-4.1429,-4.1429,-4.1429,0,-4.1428,-4.1412,-4.1442,-4.1426,-4.1426,-4.1468,-4.1443,-4.1447,-4.1454,-4.1453,-4.1473,-4.1458,-4.1465,-4.1437,-4.1421,-4.142,-4.1414,-4.1432,-4.1364,-4.1357,-4.1351,-4.133,-4.1322,-4.1426,-4.1426,-4.1426,-4.1427,0,-4.1354,-4.1342,-4.1321,-4.1329,-4.1327,-4.1306,-4.1334,-4.1328,-4.1349,-4.1365,-4.1344,-4.1355,-4.1353,-4.1348,-4.1366,-4.1323,-4.1334,-4.1359,-4.1394,-4.1338,-4.1318,-4.131,-4.1421,-4.1422,-4.1423,-4.1424,0,0,-4.1237,-4.1267,-4.1259,-4.1265,-4.1281,-4.1272,-4.1255,-4.1255,-4.125,-4.1255,-4.1241,-4.123,-4.1255,-4.1255,-4.1275,-4.126,-4.121,-4.1287,-4.1288,-4.1273,-4.1165,-4.1145,-4.1135,-4.1227,-4.1226,-4.1225,-4.1164,0,-4.1169,-4.1141,-4.117,-4.1137,-4.1127,-4.117,-4.1155,-4.1163,-4.1179,-4.1173,-4.119,-4.1182,-4.1214,-4.1215,-4.1203,-4.1218,-4.1188,-4.1223,-4.1215,-4.1214,-4.1211,-4.1125,-4.1104,-4.1046,-4.1157,-4.1156,-4.1155,0,-4.1083,-4.1087,-4.1053,-4.1075,-4.1073,-4.1059,-4.1063,-4.1058,-4.107,-4.1082,-4.1085,-4.1111,-4.1097,-4.1133,-4.1113,-4.1137,-4.1136,-4.1143,-4.1142,-4.1141,-4.118,-4.1122,-4.1028,-4.102,-4.1143,-4.1144,-4.1145,0,-4.1003,-4.0999,-4.0979,-4.0983,-4.1008,-4.0998,-4.1008,-4.1022,-4.1022,-4.1026,-4.1026,-4.1028,-4.1029,-4.103,-4.1056,-4.108,-4.1035,-4.1072,-4.1045,-4.1044,-4.1031,-4.1031,-4.0936,-4.1031,-4.1031,-4.1032,-4.1032,0,-4.0922,-4.0899,-4.0944,-4.0931,-4.0909,-4.0944,-4.092,-4.0935,-4.0948,-4.094,-4.0976,-4.0967,-4.1003,-4.0999,-4.102,-4.1002,-4.1001,-4.1011,-4.1017,-4.1008,-4.1006,-4.1006,-4.101,-4.1029,-4.103,-4.103,-4.1031,0,-4.0826,-4.0856,-4.0837,-4.0865,-4.0871,-4.0853,-4.0877,-4.0867,-4.0887,-4.0876,-4.0876,-4.0906,-4.0903,-4.0931,-4.0932,-4.0946,-4.0918,-4.0931,-4.0915,-4.0918,-4.089,-4.0892,-4.079,-4.0779,-4.0881,-4.088,-4.0879,0,-4.0772,-4.0757,-4.0784,-4.0782,-4.0791,-4.0787,-4.0788,-4.0824,-4.0823,-4.0839,-4.0827,-4.0828,-4.083,-4.0824,-4.0845,-4.0848,-4.0861,-4.0825,-4.0861,-4.0853,-4.0861,-4.0861,-4.086,-4.0817,-4.0815,-4.0814,-4.0813,0,-4.0673,-4.069,-4.069,-4.0698,-4.0699,-4.0705,-4.0714,-4.071,-4.0749,-4.0747,-4.0746,-4.0748,-4.0752,-4.0753,-4.076,-4.0771,-4.0798,-4.0803,-4.0797,-4.0786,-4.0777,-4.0783,-4.0894,-4.0804,-4.0805,-4.0806,-4.0806,-4.0807,-4.0597,-4.0586,-4.0605,-4.0606,-4.0618,-4.0626,-4.062,-4.064,-4.0641,-4.0648,-4.0669,-4.0665,-4.0681,-4.0694,-4.0703,-4.07,-4.0718,-4.0708,-4.0706,-4.0703,-4.0698,-4.0779,-4.0702,-4.0702,-4.0702,-4.0703,-4.0703,0,-4.05,-4.0516,-4.0517,-4.053,-4.0531,-4.0561,-4.0574,-4.0572,-4.0569,-4.0582,-4.0585,-4.0586,-4.0588,-4.0612,-4.0617,-4.0611,-4.0624,-4.0611,-4.0611,-4.0613,-4.0682,-4.0687,-4.06,-4.06,-4.06,-4.06,-4.06,-4.06,-4.045,-4.0434,-4.0454,-4.0446,-4.0462,-4.0459,-4.0464,-4.0473,-4.0485,-4.0484,-4.0487,-4.0504,-4.0523,-4.053,-4.0534,-4.0541,-4.0542,-4.0524,-4.0535,-4.0598,-4.0608,-4.0618,-4.0623,-4.0524,-4.0524,-4.0468,-4.0467,-4.0467]}]]